Zurück zum Katalog

CZ-6A DEB

AktivPO
NORAD 54626·DEBRIS·🇨🇳 China

Gestartet Nov 11, 2022 von Taiyuan Satellite Launch Center

Loading…

Nächste Überflüge (nächste 24 Stunden)

TLE

AktuellSource: Space-Track

Epoche: Sep 14, 2026, 10:36 UTC

1 54626U 22151PC  26257.44221896  .00005132  00000-0  90198-3 0  9993
2 54626  98.6085 319.6556 0074255  25.1872 335.2922 14.66318775201865

Verfolge CZ-6A DEB in Echtzeit mit AllMySat

Download on the App Store